Flag for Ireland Weather past 2 weeks in Dublin, Ireland

Now
30 °F

Passing clouds.


Feels Like: 21 °F
Forecast: 30 / 41 °F
Wind: 12 mph from Northwest

Location: Dublin Airport

Current Time: Dec 28, 2014 at 6:05:05 AM

Latest Report: Dec 28, 2014 at 5:30 AM


Visibility: N/A

Pressure: 30.36 "Hg

Humidity: 93%

Dew point: 28 °F

Location of DublinLocation

Historic Weather in Dublin — Graph

°F

Dublin temperature yesterday

Maximum temperature yesterday: 39 °F (at 1:30 PM)
Minimum temperature yesterday: 32 °F (at 7:30 PM)
Average temperature yesterday: 35 °F

Past Weeks' High & Low Weather Summary

 TemperatureHumidityPressure
High55 °F (Dec 18, 12:30 PM)100% (Dec 13, 5:00 AM)30.51 "Hg (Dec 13, 5:00 AM)
Low28 °F (Dec 28, 3:30 AM)71% (Dec 19, 12:00 PM)29.53 "Hg (Dec 18, 7:30 AM)
Average44 °F89%29.92 "Hg
* Reported Dec 13 5:00 AM — Dec 28 5:00 AM, Dublin, Weather by CustomWeather, © 2014

Note: Actual official high and low records may vary slightly from our data, if they occured in-between our weather recording intervals... More about our weather records

Advertising

Dublin weather history for previous 24 hours

 ConditionsComfort  
Time TempWeatherWind HumidityBarometerVisibility
5:00 AM
Dec 28
30 °FPassing clouds.10 mph93%30.36 "HgN/A
4:30 AM30 °FPassing clouds.8 mph93%30.33 "HgN/A
3:30 AM28 °FPassing clouds.8 mph100%30.30 "HgN/A
3:00 AM30 °FPassing clouds.10 mph93%30.30 "HgN/A
2:30 AM32 °FPassing clouds.12 mph93%30.27 "HgN/A
2:00 AM32 °FPassing clouds.13 mph93%30.27 "HgN/A
1:30 AM30 °FPassing clouds.9 mph93%30.24 "HgN/A
1:00 AM32 °FPassing clouds.8 mph93%30.21 "HgN/A
12:30 AM32 °FPassing clouds.15 mph93%30.21 "HgN/A
12:00 AM32 °FPassing clouds.12 mph93%30.21 "HgN/A
11:30 PM
Dec 27
32 °FPassing clouds.10 mph93%30.18 "HgN/A
11:00 PM32 °FPassing clouds.13 mph93%30.15 "HgN/A
10:30 PM32 °FPassing clouds.14 mph93%30.15 "HgN/A
10:00 PM34 °FPassing clouds.14 mph93%30.12 "HgN/A
9:30 PM32 °FPassing clouds.13 mph100%30.09 "HgN/A
9:00 PM32 °FPassing clouds.12 mph100%30.09 "HgN/A
8:30 PM32 °FPassing clouds.10 mph93%30.07 "HgN/A
8:00 PM32 °FPassing clouds.13 mph100%30.07 "HgN/A
7:30 PM32 °FPassing clouds.13 mph93%30.04 "HgN/A
7:00 PM34 °FPassing clouds.13 mph93%30.01 "HgN/A
6:30 PM34 °FPassing clouds.12 mph93%29.98 "HgN/A
6:00 PM34 °FPassing clouds.10 mph93%29.98 "HgN/A
5:30 PM34 °FPassing clouds.12 mph93%29.95 "HgN/A
5:00 PM34 °FPassing clouds.9 mph93%29.95 "HgN/A
4:30 PM34 °FPassing clouds.10 mph93%29.95 "HgN/A
4:00 PM36 °FPassing clouds.12 mph87%29.92 "HgN/A
3:30 PM36 °FScattered clouds.12 mph93%29.92 "HgN/A
3:00 PM37 °FBroken clouds.14 mph87%29.92 "HgN/A
2:30 PM37 °FBroken clouds.15 mph87%29.92 "HgN/A
2:00 PM39 °FBroken clouds.15 mph87%29.89 "HgN/A
1:30 PM39 °FScattered clouds.15 mph87%29.89 "HgN/A
1:00 PM37 °FScattered clouds.14 mph93%29.89 "HgN/A
12:30 PM37 °FScattered clouds.15 mph93%29.89 "HgN/A
12:00 PM37 °FPartly sunny.13 mph93%29.92 "HgN/A
11:30 AM37 °FPartly sunny.16 mph93%29.92 "HgN/A
11:00 AM37 °FScattered clouds.15 mph93%29.92 "HgN/A
10:30 AM36 °FScattered clouds.15 mph93%29.92 "HgN/A
10:00 AM36 °FScattered clouds.13 mph93%29.92 "HgN/A
9:30 AM36 °FScattered clouds.15 mph93%29.92 "HgN/A
9:00 AM36 °FScattered clouds.10 mph93%29.92 "HgN/A
8:30 AM34 °FPassing clouds.14 mph100%29.92 "HgN/A
8:00 AM36 °FPassing clouds.14 mph93%29.92 "HgN/A
7:30 AM34 °FPassing clouds.13 mph100%29.95 "HgN/A
7:00 AM34 °FPassing clouds.13 mph100%29.95 "HgN/A
6:30 AM34 °FPassing clouds.16 mph100%29.95 "HgN/A
6:00 AM34 °FPassing clouds.15 mph100%29.95 "HgN/A
Weather by CustomWeather, © 2014

See weather overviewHow to use our weather pages